Regional Weather Roundup
Issued by NWS

Home | Current Version | Previous Version | Graphics & Text | Print | Product List | Glossary On
Versions: 1 2 3 4 5 6 7 8 9 10 11 12 13 14 15 16 17 18 19 20 21 22 23 24 25 26 27 28 29 30 31 32 33 34 35 36 37 38 39 40 41 42 43 44 45 46 47 48 49 50
690
ASUS45 KPSR 290210
RWRAZ

ARIZONA HOURLY REGIONAL WEATHER ROUNDUP
NATIONAL WEATHER SERVICE PHOENIX AZ
700 PM MST SUN AUG 28 2016

NOTE: FAIR INDICATES FEW OR NO CLOUDS BELOW 12,000 FEET WITH NO
SIGNIFICANT WEATHER AND/OR OBSTRUCTIONS TO VISIBILITY.

AZZ001>003-036-290300-
NORTHWEST ARIZONA

CITY           SKY/WX    TMP DP  RH WIND       PRES   REMARKS
BULLHEAD CITY  CLEAR    100  41  13 N13       29.84R
KINGMAN        CLEAR     85  50  29 N5        30.07S
$$

AZZ004>008-015-016-018-290300-
NORTH CENTRAL ARIZONA

CITY           SKY/WX    TMP DP  RH WIND       PRES   REMARKS
GRAND CANYON   CLEAR     65  46  50 NE3       30.32R
PRESCOTT       CLEAR     75  49  39 N3        30.19R
FLAGSTAFF      CLEAR     63  43  48 E6        30.32R
PAYSON         CLEAR     73  46  38 N5        30.21S
PAGE           CLEAR     82  41  23 E3        30.13R
$$

AZZ009>014-017-290300-
NORTHEAST ARIZONA

CITY           SKY/WX    TMP DP  RH WIND       PRES   REMARKS
WINSLOW        PTCLDY    74  44  34 N5        30.20S
SAINT JOHNS    PTCLDY    69  43  38 CALM      30.22R
SHOW LOW       CLEAR     63  41  45 CALM      30.29R
$$

AZZ023-290300-
GREATER PHOENIX AREA

CITY           SKY/WX    TMP DP  RH WIND       PRES   REMARKS
PHOENIX        PTCLDY    96  45  17 NW6       29.86R
BUCKEYE        CLEAR     95  48  20 E7        29.87S
GLENDALE       PTCLDY    97  46  17 SE5       29.88R
LUKE AFB       CLEAR     97  46  17 S6        29.85S
DEER VALLEY    CLEAR     95  45  17 CALM      29.88S
SCOTTSDALE     CLEAR     95  45  17 NW3       29.90S
MESA-FALCON      N/A    N/A N/A N/A SW9       29.86S
MESA-GATEWAY   PTCLDY    93  45  18 NW6       29.90R
CHANDLER       PTCLDY    95  45  17 NW9       29.88S
$$

AZZ027-028-290300-
SOUTHWEST MARICOPA COUNTY AND PINAL COUNTY

CITY           SKY/WX    TMP DP  RH WIND       PRES   REMARKS
CASA GRANDE    CLEAR     93  43  17 N7        29.92S
GILA BEND      FAIR      98  39  13 E7        29.84S
$$

AZZ503-504-507>509-290300-
SOUTHEAST ARIZONA

CITY           SKY/WX    TMP DP  RH WIND       PRES   REMARKS
TUCSON         CLEAR     90  38  16 N10       29.99R
DAVIS-MONTHAN  CLEAR     88  39  17 NW10      29.98R
RYAN FIELD     CLEAR     88  41  19 NW9       29.98R
NOGALES        CLEAR     81  41  24 NW3       30.05S
SIERRA VISTA   CLEAR     79  38  23 N9        30.13R
DOUGLAS        CLEAR     77  42  28 N8        30.06R
SAFFORD        CLEAR     87  36  16 W8        29.97R
$$

AZZ020-021-025-026-031-290300-
SOUTHWEST ARIZONA

CITY           SKY/WX    TMP DP  RH WIND       PRES   REMARKS
YUMA           CLEAR     99  45  15 W9        29.80S
$$

CAZ031-033-041-043-047-048-061-290300-
SOUTHERN CALIFORNIA

CITY           SKY/WX    TMP DP  RH WIND       PRES   REMARKS
DOWNTOWN L.A.  CLEAR     72  59  63 VRB6      29.92S
L.A. AIRPORT   CLEAR     70  59  68 W18       29.92F
SAN DIEGO      PTCLDY    73  63  70 NW8       29.95S
BURBANK        CLEAR     81  59  47 SE6       29.92S
ONTARIO        CLEAR     83  53  35 W12       29.93R
RIVERSIDE      CLEAR     84  56  38 W12       29.94R
PALM SPRINGS   CLEAR    100  51  19 SE9       29.84R
EL CENTRO NAS  CLEAR    100  44  14 S6        29.81S
IMPERIAL       CLEAR    102  49  16 SW6       29.79S
BLYTHE         CLEAR    100  50  18 SE7       29.82S
NEEDLES        CLEAR    102  48  16 NE16G49   29.85F
$$

NVZ020-UTZ003-290300-
SOUTHERN NEVADA-UTAH

CITY           SKY/WX    TMP DP  RH WIND       PRES   REMARKS
LAS VEGAS      PTCLDY    94  43  17 VRB5      29.95S
SALT LAKE CITY PTCLDY    84  33  16 N7        30.11S
$$

NMZ009-TXZ055-290300-
NEW MEXICO-WEST TEXAS

CITY           SKY/WX    TMP DP  RH WIND       PRES   REMARKS
ALBUQUERQUE    PTCLDY    73  40  30 N6        30.20R
EL PASO        PTCLDY    80  57  45 NE14      30.06R
$$


........................KEY........................
SKY/WX - SKY CONDITION/WEATHER
TMP    - TEMPERATURE IN FAHRENHEIT
DP     - DEW POINT IN FAHRENHEIT
RH     - RELATIVE HUMIDITY IN PERCENT
WIND   - DIRECTION AND SPEED IN MILES PER HOUR (MPH)
VRB    - VARIABLE WIND DIRECTION
PRES   - MEAN SEA LEVEL PRESSURE IN INCHES OF MERCURY
         F - FALLING PRESSURE   R - RISING PRESSURE
         S - STEADY PRESSURE
VSB    - VISIBILITY IN MILES
HX     - HEAT INDEX IN FAHRENHEIT
WCI    - WIND CHILL INDEX IN FAHRENHEIT
TC     - TEMPERATURE IN CELSIUS WHICH IS ALSO KNOWN AS
         TEMPERATURE IN CENTIGRADE
AFB    - AIR FORCE BASE
         LUKE AFB IS LUKE AIR FORCE BASE
         DAVIS-MONTHAN IS DAVIS-MONTHAN AIR FORCE BASE
NAS    - NAVAL AIR STATION
         EL CENTRO NAS IS EL CENTRO NAVAL AIR STATION
N/A    - NOT AVAILABLE





USA.gov is the U.S. government's official web portal to all federal, state and local government web resources and services.